Retour au catalogue

SKYNET 5D

ActifMilitaireGEO
NORAD 39034·PAYLOAD·🇬🇧 United Kingdom

Lancé Dec 19, 2012 depuis Guiana Space Centre

Loading…

TLE

FraisSource: Space-Track

Époque: Sep 14, 2026, 14:03 UTC

1 39034U 12075A   26257.58558772  .00000091  00000-0  00000-0 0  9993
2 39034   0.0768   7.3745 0003743 175.3526  74.3793  1.00273685 50059

Suivez SKYNET 5D en temps réel avec AllMySat

Download on the App Store